Regional Weather Roundup
Issued by NWS Jackson, KY

Home | Current Version | Previous Version | Text Only | Print | Product List | Glossary Off
Versions: 1 2 3 4 5 6 7 8 9 10 11 12 13 14 15 16 17 18 19 20 21 22 23 24 25 26 27 28 29 30 31 32 33 34 35 36 37 38 39 40 41 42 43 44 45 46 47 48 49 50

000
ASUS43 KJKL 122110
RWRJKL

EAST KENTUCKY HOURLY WEATHER ROUNDUP
NATIONAL WEATHER SERVICE JACKSON KY
400 PM EST FRI FEB 12 2016

NOTE: "FAIR" INDICATES FEW OR NO CLOUDS BELOW 12,000 FEET WITH
NO SIGNIFICANT WEATHER AND/OR OBSTRUCTIONS TO VISIBILITY.

* THESE REPORTS ARE NOT UNDER NWS QUALITY CONTROL AND MAY NOT
  REPORT WEATHER SUCH AS PRECIPITATION AND FOG.

KYZ079-080-083-085-087-088-110-112-115-119-120-122200
...EASTERN KENTUCKY...

CITY           SKY/WX    TMP DP  RH WIND       PRES   REMARKS
JACKSON        CLOUDY    30  20  66 CALM      30.05R
LONDON         CLOUDY    30  23  75 W10       30.10R WCI  21
SOMERSET*      CLOUDY    30  25  80 W9        30.15R WCI  22
MONTICELLO*    CLOUDY    32  26  78 NW16      30.16R WCI  21
WILLIAMSBURG*  CLOUDY    32  27  80 W5        30.11R WCI  27
MIDDLESBORO*   CLOUDY    33  27  79 W3        30.10R
HARLAN APT*    CLOUDY    30  25  80 SW8       30.06R WCI  23
HAZARD APT*    CLOUDY    27  19  74 W8        30.07R WCI  18
BLACK MTN*       N/A     21  21 100 SW8         N/A  WCI  12
BIG SANDY*     CLOUDY    31  21  65 SW9       30.03S WCI  23
MOREHEAD APT*  CLOUDY    30  19  64 W12G17    30.07F WCI  21
$$

KYZ035-036-041-042-044-050-067-078-099-122200
...CENTRAL KENTUCKY...

CITY           SKY/WX    TMP DP  RH WIND       PRES   REMARKS
MT STERLING*   CLOUDY    32  21  64 NW9G21    30.09R WCI  24
DANVILLE*      CLOUDY    32  23  69 W8        30.13R WCI  25
RICHMOND*      CLOUDY    30  23  74 W13       30.10R WCI  20
LEXINGTON      CLOUDY    31  20  63 W14G23    30.10R WCI  21
FRANKFORT      CLOUDY    32  20  61 VRB7      30.11R WCI  26
$$

KYZ091>093-OHZ055-061-077-WVZ005-015-034-035-042-122200
...SOUTHERN OHIO/WEST VIRGINIA...

CITY           SKY/WX    TMP DP  RH WIND       PRES   REMARKS
COVINGTON      CLOUDY    28  17  63 W16G22    30.07F WCI  16
COLUMBUS       CLOUDY    24  11  57 W15       30.02F WCI  11
DAYTON         FLURRIES  25  16  68 W21       30.04S WCI  11
WILMINGTON     CLOUDY    25  15  66 W16       30.03S WCI  12
HUNTINGTON     CLOUDY    32  10  40 W5        30.03F WCI  27
CHARLESTON     CLOUDY    29  13  51 W9        30.02R WCI  20
PINEVILLE*       N/A     28  20  72 MISG      30.02S
BECKLEY        CLOUDY    25  18  74 W10       29.91S WCI  15
$$

VAZ002-007-008-TNZ017-027-036-066-071-122200
...SOUTHWEST VIRGINIA/EAST TENNESSEE...

CITY           SKY/WX    TMP DP  RH WIND       PRES   REMARKS
BRISTOL        CLOUDY    32  28  85 SW12      30.05R WCI  23
KNOXVILLE      CLOUDY    35  31  85 SW9       30.11S WCI  28
OAK RIDGE      CLOUDY    38  30  73 VRB5      30.12S WCI  34
CROSSVILLE     CLOUDY    34  26  72 NW12      30.10R WCI  25
NASHVILLE      CLOUDY    43  25  49 N9        30.19R
$$

...KEY TO REMARKS...
VSB - VISIBILITY IN MILES
WCI - WIND CHILL INDEX
HX  - HEAT INDEX

$$



USA.gov is the U.S. government's official web portal to all federal, state and local government web resources and services.